Regional Weather Roundup
Issued by NWS Pendleton, OR

Home | Current Version | Previous Version | Text Only | Print | Product List | Glossary On
Versions: 1 2 3 4 5 6 7 8 9 10 11 12 13 14 15 16 17 18 19 20 21 22 23 24 25 26 27 28 29 30 31 32 33 34 35 36 37 38 39 40 41 42 43 44 45 46 47 48 49 50
000
ASUS46 KPDT 282110
RWRPDT
PENDLETON REGIONAL WEATHER ROUNDUP
NATIONAL WEATHER SERVICE PENDLETON OREGON
200 PM PDT SUN AUG 28 2016

NOTE: FAIR INDICATES FEW OR NO CLOUDS BELOW 12,000 FEET WITH NO
SIGNIFICANT WEATHER AND/OR OBSTRUCTIONS TO VISIBILITY.

# INDICATES UNOFFICIAL STATION AND DATA

WAZ520-282210-
EAST SLOPES OF WASHINGTON CASCADES

CITY            SKY/WX      TMP DP  RH  WIND    PRES   REMARKS
#CLE ELUM HS    N/A         76  35  22  SW2     29.99S
#CLE ELUM 2NW   N/A         75  33  21  W3      N/A
#GLENWOOD       N/A         81  52  37  S5      29.97S
#MANASTASH CYN  N/A         74  46  37  CALM    30.05S
#NELSON 3SW     N/A         72  41  33  CALM    30.19S
#NILE           N/A         78  41  27  NE2     29.24S
#RONALD 2NW     N/A         72  N/A N/A W1      29.96S
#TEANAWAY 4NE   N/A         76  42  30  W1      N/A
#TROUT LAKE 1NE N/A         80  46  30  W2      29.96F
$$

WAZ521-282210-
SIMCOE HIGHLANDS

CITY            SKY/WX      TMP DP  RH  WIND    PRES   REMARKS
#CENTERVILLE 1SWN/A         81  48  32  SW6     29.91F
#GOLDENDALE 1NE N/A         82  22  11  SW3     N/A
#GOLDENDALE 4W  N/A         84  54  36  W12     30.04F
#GOODNOE HILLS  N/A         87  46  24  SW13    29.93F
#LYLE 6NE       N/A         80  53  39  SW7     29.93F
$$

WAZ026-282210-
KITTITAS VALLEY

CITY            SKY/WX      TMP DP  RH  WIND    PRES   REMARKS
ELLENSBURG AP   SUNNY       82  38  21  N6      30.05S
#ELLENSBURG CWU N/A         79  42  27  CALM    29.93S
#ELLENSBURG 3NE N/A         77  43  30  CALM    30.04S
#ELLENSBURG     N/A         85  41  21  N1      N/A
#KITTITAS 4N    N/A         80  41  25  W5      30.00S
#KITTITAS 3S    N/A         78  44  30  W3      29.96S
#THORP 6N       N/A         75  40  28  SE6     30.01S
$$

WAZ027-282210-
YAKIMA VALLEY

CITY            SKY/WX      TMP DP  RH  WIND    PRES   REMARKS
YAKIMA AIRPORT  SUNNY       85  39  20  VRB5    30.02S
YAKIMA-VAGABOND N/A         82  37  20  S8      30.00F
#DONALD 2NE     N/A         88   9   5  CALM    28.86F
#GRANDVIEW      N/A         80  40  24  CALM    29.98S
#MABTON         N/A         81  48  32  N5      29.98F
#NACHES 2SW     N/A         78  47  34  E3      30.05F
#TERRACE HTS    N/A         81  47  30  SW2     29.93F
#TOPPENISH      N/A         79  45  30  E2      29.89S
#WEST VALLEY    N/A         79  38  23  E1      29.96S
#WHITE SWAN 5E  N/A         80  47  31  N5      29.97F
#WILEY CITY 3W  N/A         81  31  16  CALM    30.00S
$$

WAZ028-282210-
LOWER COLUMBIA BASIN...WASHINGTON

CITY            SKY/WX      TMP DP  RH  WIND    PRES   REMARKS
HANFORD         MOSUNNY     87  34  15  E6      30.00S
PASCO           SUNNY       86  39  19  CALM    29.99F
RICHLAND AWOS   SUNNY       87  42  21  CALM    29.99S
#BENTON CITY    N/A         83  42  24  N2      29.87F
#CONNELL 5N     N/A         82  45  27  W3      29.98S
#CONNELL 5NW    N/A         81  47  30  SW1     29.95R
#ELTOPIA 6NW    N/A         80  47  31  CALM    28.99S
#KAHLOTUS       N/A         81  42  25  NW5     29.96F
#KENNEWICK 3S   N/A         86  36  17  N1      29.96F
#PATERSON       N/A         83  44  25  SW2     29.95F
#SAGEMOOR 2W    N/A         81  48  32  E1      29.83S
#TOUCHET 2S     N/A         92  46  21  SW5     29.93S HX 88
#WEST PASCO     N/A         86  51  30  W1      29.97S
$$

WAZ029-282210-
FOOTHILLS OF THE BLUES...WASHINGTON

CITY            SKY/WX      TMP DP  RH  WIND    PRES   REMARKS
WALLA WALLA AP  SUNNY       85  42  22  VRB3    30.02F
#CLYDE 6NW      N/A         82  38  21  W7      29.96S
#DAYTON SCHOOL  N/A         83  36  19  W3      30.03F
#LOWDEN 2SE     N/A         86  53  32  N3      29.94F
#PLEASANT VIEW 1N/A         83  32  16  SW7     30.00S
#PRESCOTT       N/A         86  41  21  CALM    29.96S
#WHITMAN COLLEGEN/A         83  48  30  W6      30.00F
#WAITSBURG 8N   N/A         85  25  11  S10     30.00S
#WALLA WALLA U  N/A         85  48  28  SW2     29.95F
#WHITMAN MISSIONN/A         87  49  27  CALM    29.96F
$$

WAZ030-282210-
BLUE MOUNTAINS...WASHINGTON

CITY            SKY/WX      TMP DP  RH  WIND    PRES   REMARKS
#DIXIE 5SE      N/A         61  52  72  S13     30.04S
$$

ORZ009-041-WAZ024-282210-
COLUMBIA RIVER GORGE

CITY            SKY/WX      TMP DP  RH  WIND    PRES   REMARKS
HOOD RIVER AP   SUNNY       84  52  33  NW9     29.99F
THE DALLES AP   SUNNY       87  47  25  CALM    29.96F
#ARLINGTON AIRPON/A         83  48  30  W5      29.96F
#LYLE           N/A         83  56  40  NW7     29.96F
#MARYHILL 2W    N/A         N/A N/A N/A CALM    N/A
#MOSIER 1S      N/A         85  42  22  N6      29.97F
#MURDOCK        N/A         83  57  41  W9      29.91F
#RUFUS DOT      N/A         84  51  32  N2      N/A
#SMITHVILLE     N/A         86  53  32  W8      29.96F

$$

ORZ510-282210-
NORTH CENTRAL OREGON

CITY            SKY/WX      TMP DP  RH  WIND    PRES   REMARKS
#ANTELOPE       N/A         84  49  30  W12     29.75F
#COW CYN RST AREN/A         82  N/A N/A SW2     N/A
#DUFUR 9E       N/A         76  51  42  N7      30.01S
#GRASS VALLEY 1SN/A         85  47  27  S5      29.99F
#KENT DOT       N/A         85  46  26  N6      N/A
#MAUPIN SCHOOL  N/A         90  55  31  NW1     29.99F HX 88
#SHANIKO 5WSW   N/A         81  48  32  N3      N/A
#TYGH VALLEY 2NEN/A         88  53  30  N1      29.91S
#WAPANITIA AIRPON/A         86  49  28  S1      29.92F
#WASCO DOT      N/A         86  56  36  W8      N/A
#WASCO 5NE      N/A         85  51  31  CALM    29.94F
$$

ORZ511-282210-
CENTRAL OREGON

CITY            SKY/WX      TMP DP  RH  WIND    PRES   REMARKS
BEND AIRPORT    SUNNY       88  30  12  W10     30.07F
MADRAS AIRPORT  SUNNY       93  43  18  SW6     30.05F HX 89
REDMOND AIRPORT SUNNY       89  38  17  NE12    30.05F
#ASHWOOD SCHOOL N/A         87  46  24  NE3     29.99F
#BEND 1SW       N/A         86  41  21  S2      N/A
#BEND-AWBREY    N/A         88  42  20  S7      29.88F
#CULVER         N/A         87  46  24  N1      29.83S
#LAKE BILLY CHINN/A         89  N/A N/A N13     30.04F
#MADRAS 4S      N/A         86  30  13  CALM    30.10F
#POWELL BUTTE 3EN/A         83  45  26  NW3     N/A
#POWELL BUTTE   N/A         89  49  25  NW1     29.95S
#PRINEVILLE 3N  N/A         84  48  29  E3      29.97F
#WARM SPRINGS   N/A         90  51  26  CALM    29.96F HX 87

$$


ORZ509-282210-
EAST SLOPES OF OREGON CASCADES

CITY            SKY/WX      TMP DP  RH  WIND    PRES   REMARKS
SISTERS AWOS    N/A         84  45  26  N9      30.03F
#BLUE BOX PASS  N/A         78  N/A N/A SW2     N/A
#CAMP SHERMAN   N/A         92  41  17  S3      29.93S HX 88
#LA PINE 4NW    N/A         84  45  26  CALM    29.97F
#LAVA BUTTE DOT N/A         85  47  27  SE5     N/A
#SISTERS AIRPOR N/A         85  55  36  N8      30.17S
#SISTERS ODOT   N/A         85  N/A N/A E3      N/A
#SISTERS 3N     N/A         85  47  27  CALM    29.99S
#SUNRIVER       N/A         86  40  20  SW3     29.93F
#SUTTLE LK DOT  N/A         77  49  37  E3      N/A
#TUMALO 3W      N/A         84  45  26  E5      29.78S
#WANOGA BUTTE D N/A         73  31  21  SW8     N/A

$$

ORZ044-282210-
LOWER COLUMBIA BASIN...OREGON

CITY            SKY/WX      TMP DP  RH  WIND    PRES   REMARKS
HERMISTON       SUNNY       89  43  20  W10     29.99S
#BOARDMAN SCHOOLN/A         84  41  22  N3      29.97F
#ECHO 8SW       N/A         87  49  27  W2      29.99F
#I-84 EX 198 DOTN/A         82  55  40  E7      N/A
#UMATILLA       N/A         85  48  28  CALM    29.90F
$$

ORZ507-282210-
NORTHERN FOOTHILLS OF THE BLUES

CITY            SKY/WX      TMP DP  RH  WIND    PRES   REMARKS
PENDLETON AIRPT SUNNY       85  40  20  W9      30.02S
#ADAMS 3WNW     N/A         84  44  25  W3      29.94S
#ATHENA         N/A         83  46  27  CALM    29.97F
#CAYUSE         N/A         83  48  30  E2      29.93F
#HELIX SCHOOL   N/A         83  41  23  W7      29.96S
#HELIX 3N       N/A         83  38  20  W7      30.02R
#HELIX 6SW      N/A         83  39  21  W7      30.02S
#HOLDMAN 5SE    N/A         84  43  24  W7      30.01S
#HOLDMAN 6E     N/A         83  39  21  NE6     29.78S
#M-F GROVE ELEM N/A         85  43  23  N1      29.99S
#M-FREEWATER 5SEN/A         85  51  31  CALM    30.01S
#PDT AQUATIC CTRN/A         85  50  30  NW2     30.05S
#PDT SUNRIDGE   N/A         87  47  25  SW3     30.01F
#PENDLETON 7NW  N/A         83  54  37  W3      32.43S
#PILOT ROCK 1S  N/A         85  47  27  N7      30.03F
#PILOT ROCK     N/A         84  50  31  NE5     30.02S
#TUTUILLA       N/A         86  48  27  CALM    29.97F
#UMAPINE 2E     N/A         88  51  28  N3      29.96F
#WESTON SCHOOL  N/A         81  39  22  N6      29.89S

$$

ORZ508-282210-
SOUTHERN FOOTHILLS OF THE BLUES

CITY            SKY/WX      TMP DP  RH  WIND    PRES   REMARKS
LEXINGTON       SUNNY       86  46  25  VRB5    30.05F
#AJAX           N/A         82  45  27  CALM    27.79F
#CONDON SCHOOL  N/A         81  48  32  S1      30.02F
#CONDON 5W      N/A         80  42  26  W6      30.06F
#FOSSIL SCHOOL  N/A         85  46  26  NW5     29.99F
#HEPPNER EOC    N/A         84  49  30  N5      29.88S
#HEPPNER 4NE    N/A         80  47  31  N6      29.94F
#LEXINGTON 2SE  N/A         86  50  29  CALM    29.98F
#MIKKALO        N/A         84  46  27  N1      30.13F
#OLEX 4N        N/A         84  50  31  N2      29.98F
#RUGGS 5NE      N/A         85  50  30  NW6     30.23F
#RUGGS 2SW      N/A         83  48  30  N7      29.94F

$$

ORZ502-503-282210-
BLUE MOUNTAINS

CITY            SKY/WX      TMP DP  RH  WIND    PRES   REMARKS
MEACHAM         SUNNY       80  37  21  VRB5    30.13S
#BATTLE MTN DOT N/A         79  46  31  N2      N/A
#CUTSFORTH PARK N/A         80  46  30  E1      29.91S
#GREENHORN 9SW  N/A         88  43  21  SW2     26.28F
#HARDMAN 10S    N/A         78  45  31  CALM    30.06S
#HEPPNER 15SE   N/A         81  47  30  W2      30.05F
#LADD CYN SMT   N/A         83  49  31  NW3     N/A
#LADD CREEK ODOTN/A         81  54  39  NE6     N/A
#LONG CREEK HS  N/A         80  45  29  SW2     30.11S
#N POWDER DOT   N/A         83  55  38  NE2     N/A
#PIKES PEAK     N/A         74  42  32  W1      27.99S
#TOLLGATE       N/A         70  41  35  S5      30.04S
#TROY SCHOOL    N/A         89  47  24  N1      29.76F
#UKIAH          N/A         83  46  27  S6      29.87F
#WESTON 4E      N/A         78  41  27  SW3     29.94R
$$

ORZ505-282210-
JOHN DAY BASIN

CITY            SKY/WX      TMP DP  RH  WIND    PRES   REMARKS
JOHN DAY        SUNNY       88  42  20  W7      30.11F
#DAYVILLE SCHOOLN/A         89  41  19  E1      29.99F
#MITCHELL       N/A         88  54  31  CALM    30.21F
#MITCHELL 8NW   N/A         83  42  24  NE1     30.08F
#MT. VERNON 5SE N/A         83  45  26  N3      30.08S
#SPRAY SCHOOL   N/A         93  N/A N/A CALM    N/A
$$

ORZ506-282210-
OCHOCO AND JOHN DAY HIGHLANDS

CITY            SKY/WX      TMP DP  RH  WIND    PRES   REMARKS
#BUCK CREEK DOT N/A         83  39  21  W2      N/A
#HORSE RIDGE DO N/A         84  37  19  N3      N/A
#KEYES SMT DOT  N/A         81  42  25  W1      N/A
#PAULINA SCHOOL N/A         84  39  20  E2      N/A
#PINE MTN OBS   N/A         74  33  22  S8      N/A
#PRAIRIE CITY   N/A         88  44  22  W2      30.25F
#SENECA         N/A         81  N/A N/A W6      N/A
#SENECA 9NW     N/A         83  41  23  S2      29.93S
$$

ORZ049-282210-
GRANDE RONDE VALLEY

CITY            SKY/WX      TMP DP  RH  WIND    PRES   REMARKS
LA GRANDE       SUNNY       86  43  22  E7      30.06F
#COVE           N/A         84  52  33  N1      30.11S
#COVE SCHOOL    N/A         86  49  28  CALM    30.09F
#COVE 6NW       N/A         84  48  29  CALM    29.95F
#ELGIN 3N       N/A         85  39  20  S7      30.03F
#ELGIN 1E       N/A         86  45  24  CALM    N/A
#IMBLER SCHOOL  N/A         82  47  29  CALM    30.02F
#ISLAND CITY 4N N/A         78  49  36  SE1     30.03F
#LADD CYN DOT   N/A         84  55  37  NE6     N/A
#LA GRANDE ELEM N/A         84  47  28  E2      30.06F
#UNION 1S       N/A         86  49  28  CALM    29.84F
$$

ORZ050-282210-
WALLOWA COUNTY

CITY            SKY/WX      TMP DP  RH  WIND    PRES   REMARKS
JOSEPH AIRPORT  SUNNY       81  34  18  N7      30.13S
#IMNAHA SCHOOL  N/A         57  41  55  N3      30.20S
#IMNAHA 10S     N/A         89  45  22  NE2     30.04F
#JOSEPH 3W      N/A         77  45  32  N3      30.01R
#LOSTINE        N/A         83  42  24  CALM    29.73F
#LOSTINE 3SE    N/A         82  39  22  N5      30.08S
#MT HOWARD 8000 N/A         64  41  43  NW2     30.40R
#PROMISE 1S     N/A         77  44  31  S6      30.04F
#WALLOWA SCHOOL N/A         83  42  24  NW2     30.03F



$$



USA.gov is the U.S. government's official web portal to all federal, state and local government web resources and services.